Wind_Speed
21 22 21 20 20 21 21 22 22 22 22 21 20 21 21 21 21 21 21 21 21 21 20 20 20 19 20 20 21 21 22 22 22 22 22 21 22 22 22 23 24 23 22
22 21 21 21 21 22 22 22 23 22 23 23 22 21 22 22 22 22 22 22 22 21 21 21 21 20 21 21 22 22 23 23 23 23 23 23 23 23 23 24 24 24 24
23 23 22 22 22 22 23 23 23 22 22 23 23 23 23 23 23 23 23 23 23 22 22 22 23 22 22 23 23 23 23 23 23 24 24 24 24 24 24 24 25 25 25
24 23 23 22 22 22 22 22 23 22 23 23 23 24 24 24 23 24 24 24 23 23 23 24 24 24 24 23 23 23 23 23 23 24 24 24 24 24 25 25 25 26 26
25 25 24 23 23 23 23 23 23 23 23 23 23 24 24 25 25 25 25 24 24 24 24 24 24 24 24 24 24 23 24 24 24 24 25 25 25 25 26 26 26 27 27
25 25 24 24 24 23 23 23 24 23 23 23 23 23 24 25 26 25 26 25 25 25 25 24 24 24 24 24 24 25 25 25 25 25 26 26 26 27 27 28 28 28 28
24 24 24 24 24 24 23 23 24 24 23 23 23 23 24 25 25 26 26 26 26 26 25 25 25 24 24 24 24 25 25 26 25 25 25 27 28 28 28 29 29 29 29
24 24 24 24 23 23 23 23 24 24 23 23 23 23 23 24 25 25 25 26 26 25 25 25 25 24 24 24 25 25 25 25 25 25 25 26 27 28 28 28 28 28 28
23 24 24 24 24 24 24 24 23 24 24 24 24 23 23 22 23 24 24 25 25 25 25 25 25 25 25 25 25 25 25 26 26 26 27 27 28 29 28 28 28 28 29
23 23 24 24 24 24 24 23 23 23 24 24 24 23 23 23 24 24 25 25 26 26 26 26 26 26 27 27 27 27 27 28 28 28 28 28 28 29 29 30 29 29 29
21 22 22 23 24 24 24 22 22 22 22 23 24 23 23 23 23 25 25 26 26 26 26 26 26 27 27 28 29 29 30 30 29 29 29 29 29 29 29 31 31 31 31
21 22 22 22 23 24 24 23 22 23 22 22 23 23 24 23 23 24 24 26 27 26 26 26 27 28 28 28 29 30 31 30 30 30 30 30 30 30 30 31 32 33 33
22 22 21 21 22 23 23 23 22 23 23 23 24 24 24 24 24 24 25 26 26 26 26 26 27 27 28 28 29 29 30 30 30 30 31 31 31 31 31 31 32 34 34
21 21 21 21 21 22 22 22 23 23 24 24 25 25 25 25 25 24 25 26 26 26 26 26 26 27 28 28 28 29 29 29 29 30 31 32 32 32 33 32 32 33 35
21 21 21 21 20 21 21 22 23 24 24 24 25 25 25 25 25 25 24 25 26 26 26 27 27 27 27 27 28 28 28 28 29 30 31 32 32 33 34 34 34 34 35
21 22 22 21 21 20 21 22 22 22 22 22 23 24 24 25 26 25 25 24 24 26 26 26 26 26 27 27 27 28 28 28 29 29 30 31 33 34 35 36 36 36 36
22 22 21 21 22 22 21 22 22 22 22 23 22 23 23 24 25 25 24 24 24 24 25 26 26 26 27 27 26 27 27 27 28 29 30 31 32 34 35 35 36 37 37
21 21 21 21 21 21 21 21 21 22 22 22 22 22 23 23 23 23 24 24 24 24 24 24 25 26 26 26 26 26 26 26 28 29 29 30 31 33 34 35 36 37 38
21 20 20 20 20 20 20 20 19 19 20 21 21 21 21 23 23 23 23 23 23 23 24 24 24 24 24 25 25 26 26 27 28 29 29 29 30 31 32 34 36 37 38
21 20 19 19 19 19 19 18 18 18 18 19 20 20 21 21 22 22 22 23 23 23 23 23 23 23 23 24 25 26 27 27 27 27 28 28 29 30 31 32 34 35 36
21 20 19 18 18 18 19 18 18 18 19 20 20 21 20 20 20 21 22 23 23 23 23 23 23 23 23 24 25 26 26 26 26 27 28 28 29 29 29 30 31 32 34
20 20 18 18 18 18 19 19 19 19 19 19 20 19 20 20 20 21 21 21 21 22 23 23 22 23 23 24 24 24 25 26 27 28 28 28 29 29 30 29 30 31 33
19 19 18 18 18 18 19 19 19 18 18 19 19 20 20 20 21 21 21 21 21 21 22 21 21 21 22 22 23 24 25 25 26 26 27 28 28 28 29 30 30 30 31
19 18 18 17 18 18 18 18 19 18 18 19 20 19 19 19 20 20 20 20 20 20 20 20 20 21 22 22 22 22 23 24 24 24 26 27 28 29 29 30 30 30 30
18 19 18 18 18 18 18 18 18 18 18 18 18 18 18 19 20 19 19 18 18 19 19 20 20 20 21 21 21 22 22 23 23 24 25 26 27 28 28 28 28 29 29
18 18 18 18 17 17 17 17 17 17 16 17 17 17 17 17 18 19 20 19 18 18 19 19 20 20 20 21 21 21 22 23 23 24 24 25 26 27 26 26 27 27 27
Wind_Direction
283 283 280 275 273 271 271 272 268 266 263 261 262 262 261 260 259 259 260 260 259 258 258 258 259 255 253 252 251 250 251 252 250 250 249 250 251 249 249 250 249 249 249
286 286 284 278 277 273 271 273 270 268 265 264 263 262 261 259 258 259 260 260 258 258 257 258 259 258 256 254 253 252 253 252 251 251 250 250 251 249 249 249 250 250 250
288 288 286 281 277 273 271 271 270 267 265 264 264 262 261 259 258 259 261 260 258 258 258 258 259 259 258 256 254 253 254 253 252 252 252 251 251 250 249 248 250 251 251
286 286 283 281 277 274 271 270 270 266 265 264 265 264 262 258 257 259 260 259 258 258 258 258 259 259 259 256 255 253 253 253 252 252 251 250 251 250 250 250 250 250 251
285 284 281 279 276 275 273 270 270 267 266 266 266 264 261 260 258 258 258 257 256 258 258 257 258 259 257 255 254 253 253 253 252 252 251 251 252 252 252 252 252 252 252
285 283 280 277 275 274 274 273 269 267 267 267 267 266 263 261 259 257 256 256 256 257 257 258 258 257 255 255 253 253 254 253 252 252 253 253 254 254 254 254 253 252 252
283 282 280 276 275 274 275 273 270 268 267 266 266 266 264 261 259 258 257 256 256 256 256 257 258 257 255 255 256 255 255 254 254 253 254 254 255 254 254 255 254 253 252
283 280 277 275 274 274 274 273 271 269 267 265 266 265 264 262 260 260 259 258 257 258 258 257 257 257 256 257 257 256 255 254 253 253 254 254 256 256 257 255 255 253 253
284 281 277 274 273 273 273 274 273 268 266 264 264 265 266 264 262 261 260 259 259 260 260 259 259 258 257 258 258 257 255 254 253 254 255 255 257 257 256 255 256 254 254
284 282 278 275 274 275 274 274 272 269 265 264 263 264 265 263 263 262 260 258 258 258 259 260 260 259 258 257 257 257 257 256 255 255 256 256 257 257 258 257 256 255 254
286 283 279 276 274 274 274 272 270 268 267 266 264 264 264 264 264 262 261 260 259 257 258 259 259 258 258 257 256 257 258 258 257 257 258 258 258 258 259 258 256 254 253
287 285 282 279 277 276 272 270 269 267 266 266 265 265 263 265 265 263 262 261 258 257 257 258 258 258 258 258 258 258 258 258 258 258 259 260 259 259 260 259 256 253 252
289 286 283 281 279 277 274 270 269 269 267 266 265 265 263 264 265 263 261 261 258 256 256 257 258 258 259 260 259 260 259 259 260 260 260 260 260 259 259 259 257 254 254
290 289 286 283 280 278 276 273 271 269 268 267 266 264 263 263 265 265 264 263 261 258 257 258 259 260 260 261 261 261 261 260 261 262 261 260 259 258 258 258 256 255 255
293 291 287 283 281 280 277 276 274 272 270 269 268 265 263 263 264 265 265 264 262 260 257 257 259 262 262 264 265 265 263 261 261 262 262 261 260 258 257 257 257 257 257
296 292 288 284 282 281 278 277 276 273 273 273 271 267 265 263 263 263 264 265 264 261 259 259 261 264 265 266 267 266 264 263 262 263 263 262 260 259 259 259 258 258 258
297 293 290 285 284 283 282 278 274 273 275 274 270 268 266 263 262 263 264 263 263 263 260 259 261 264 265 266 267 267 267 265 262 263 265 265 263 262 261 261 260 259 259
298 295 294 289 285 282 279 276 276 275 274 273 270 268 264 261 262 262 263 262 262 264 262 259 261 264 266 267 267 266 265 265 265 264 265 265 265 265 263 264 263 262 261
300 296 296 291 286 283 278 276 275 274 272 271 270 267 263 261 262 264 263 262 262 263 264 263 263 264 265 267 266 266 266 267 267 266 266 267 267 267 268 267 265 264 264
302 299 296 294 290 285 278 274 273 271 269 269 270 268 264 263 263 263 263 262 262 264 264 264 266 266 266 267 267 267 268 270 270 268 268 270 270 269 270 269 267 266 265
303 300 296 291 287 283 277 273 270 269 270 270 269 270 267 264 263 264 264 264 263 262 263 264 266 267 268 268 269 269 269 269 269 268 269 271 271 272 273 272 270 268 266
303 302 297 290 285 282 278 276 273 272 271 270 270 269 265 262 263 263 264 264 262 261 262 264 266 267 268 270 272 272 272 271 269 269 270 272 273 274 274 274 274 271 268
302 300 295 289 288 287 284 282 277 275 273 271 270 268 265 263 263 261 262 264 263 262 263 265 266 268 269 270 272 273 272 273 273 273 272 273 275 276 276 277 276 275 272
300 301 299 293 291 289 286 284 278 275 276 273 270 268 266 265 264 263 262 264 262 262 264 266 268 269 271 272 273 273 272 273 275 275 276 276 277 277 277 277 277 276 276
303 302 302 299 296 292 287 284 281 277 275 273 270 266 267 265 265 263 264 263 262 262 264 266 269 271 271 273 274 273 274 277 278 277 278 278 279 279 278 278 278 277 277
308 303 302 301 299 296 292 287 283 278 277 274 271 268 269 268 265 265 264 262 263 265 268 268 269 270 271 273 274 277 279 281 282 280 280 280 280 280 278 279 281 279 278
Height
5836 5835 5834 5834 5833 5833 5832 5833 5833 5833 5834 5834 5835 5835 5836 5836 5836 5837 5837 5838 5839 5840 5841 5841 5842 5843 5844 5845 5845 5847 5848 5849 5851 5852 5853 5854 5855 5857 5858 5860 5861 5863 5864
5830 5829 5828 5828 5828 5827 5827 5827 5827 5827 5827 5828 5828 5829 5829 5830 5830 5831 5832 5832 5833 5834 5835 5836 5837 5838 5838 5839 5840 5841 5842 5844 5845 5846 5848 5849 5850 5852 5853 5855 5856 5858 5859
5824 5823 5823 5822 5822 5821 5821 5821 5821 5821 5821 5822 5822 5822 5823 5824 5824 5825 5826 5826 5827 5828 5829 5830 5831 5832 5833 5834 5834 5835 5837 5838 5839 5841 5842 5844 5845 5846 5848 5849 5851 5853 5854
5819 5818 5817 5816 5816 5815 5815 5815 5815 5815 5815 5815 5815 5816 5817 5817 5818 5819 5820 5821 5821 5822 5823 5825 5825 5826 5827 5828 5828 5830 5831 5832 5833 5835 5837 5838 5840 5841 5843 5844 5845 5847 5849
5812 5811 5811 5810 5810 5809 5809 5809 5809 5808 5809 5809 5809 5809 5810 5811 5812 5812 5813 5815 5816 5816 5818 5819 5819 5820 5820 5822 5823 5824 5825 5827 5828 5829 5831 5833 5834 5835 5837 5838 5839 5841 5843
5806 5805 5804 5804 5803 5803 5803 5802 5802 5802 5803 5803 5802 5803 5804 5804 5805 5806 5807 5808 5809 5810 5811 5812 5813 5813 5814 5815 5817 5818 5819 5821 5822 5824 5825 5827 5828 5829 5831 5832 5833 5835 5836
5799 5798 5798 5797 5796 5796 5796 5796 5796 5796 5796 5796 5796 5796 5797 5798 5798 5799 5800 5802 5803 5804 5805 5806 5806 5807 5808 5809 5810 5812 5813 5814 5815 5817 5819 5820 5821 5823 5824 5825 5827 5828 5830
5792 5791 5790 5790 5789 5789 5789 5788 5789 5789 5789 5789 5790 5790 5791 5792 5792 5793 5794 5795 5796 5797 5798 5799 5800 5801 5802 5803 5804 5806 5807 5808 5809 5811 5812 5814 5815 5816 5817 5818 5819 5821 5822
5785 5784 5783 5782 5782 5782 5782 5781 5782 5782 5782 5783 5783 5784 5784 5785 5786 5787 5787 5789 5790 5791 5792 5792 5793 5794 5795 5797 5798 5799 5800 5801 5803 5804 5805 5807 5808 5809 5810 5811 5812 5814 5815
5777 5776 5775 5775 5775 5775 5775 5775 5774 5774 5775 5776 5776 5777 5778 5778 5779 5780 5781 5782 5783 5784 5785 5785 5786 5787 5788 5789 5791 5792 5793 5795 5796 5797 5798 5799 5800 5801 5802 5803 5804 5806 5807
5770 5769 5768 5767 5767 5767 5767 5767 5767 5767 5768 5769 5769 5770 5770 5770 5771 5772 5774 5775 5776 5777 5778 5778 5779 5780 5781 5782 5783 5784 5786 5787 5788 5789 5790 5791 5792 5793 5794 5795 5796 5798 5799
5764 5762 5761 5760 5760 5760 5760 5760 5760 5760 5761 5762 5762 5763 5763 5764 5764 5765 5766 5767 5768 5769 5770 5771 5771 5772 5773 5774 5775 5776 5777 5778 5779 5780 5781 5783 5784 5785 5785 5786 5787 5789 5791
5758 5756 5755 5754 5753 5752 5752 5752 5753 5753 5754 5754 5755 5756 5756 5757 5757 5757 5758 5759 5760 5761 5762 5763 5764 5765 5765 5766 5767 5768 5769 5770 5771 5772 5773 5774 5774 5776 5776 5777 5778 5780 5782
5752 5750 5749 5747 5746 5745 5745 5745 5745 5746 5746 5747 5747 5748 5749 5749 5750 5750 5751 5752 5753 5754 5754 5756 5756 5757 5758 5759 5759 5760 5760 5761 5762 5763 5764 5765 5765 5766 5767 5768 5769 5771 5773
5746 5744 5742 5741 5740 5739 5738 5738 5738 5739 5739 5739 5739 5740 5741 5742 5742 5743 5743 5744 5746 5746 5748 5748 5749 5750 5750 5751 5751 5752 5752 5753 5754 5754 5755 5755 5756 5757 5758 5759 5760 5761 5763
5740 5738 5736 5735 5734 5733 5732 5731 5732 5731 5732 5732 5732 5732 5733 5734 5735 5736 5736 5737 5738 5739 5740 5741 5742 5742 5743 5743 5744 5744 5744 5745 5745 5746 5746 5746 5747 5748 5749 5749 5750 5751 5753
5733 5731 5730 5728 5727 5727 5726 5725 5725 5725 5725 5725 5725 5725 5726 5727 5728 5728 5729 5730 5731 5732 5733 5734 5734 5735 5735 5735 5736 5736 5736 5736 5737 5737 5737 5737 5737 5738 5739 5739 5740 5741 5742
5728 5725 5723 5722 5721 5720 5720 5719 5719 5718 5719 5718 5719 5719 5719 5720 5721 5722 5722 5723 5724 5725 5726 5726 5727 5727 5728 5728 5728 5728 5728 5728 5728 5729 5729 5729 5728 5728 5729 5729 5729 5730 5731
5723 5720 5718 5716 5715 5714 5713 5713 5712 5712 5712 5712 5712 5712 5712 5713 5714 5715 5715 5716 5717 5718 5719 5719 5720 5720 5720 5720 5720 5720 5720 5720 5720 5720 5720 5720 5720 5720 5719 5719 5719 5719 5719
5718 5715 5713 5711 5709 5708 5707 5707 5706 5706 5706 5706 5706 5706 5706 5706 5707 5708 5708 5709 5710 5711 5711 5712 5712 5712 5712 5712 5712 5713 5712 5712 5712 5712 5712 5711 5711 5710 5710 5709 5709 5708 5708
5713 5710 5708 5706 5704 5703 5702 5701 5700 5700 5700 5700 5700 5700 5700 5700 5700 5701 5701 5702 5703 5704 5704 5705 5705 5705 5705 5705 5705 5705 5705 5704 5704 5703 5703 5703 5702 5702 5700 5699 5698 5697 5697
5707 5705 5703 5701 5699 5697 5696 5695 5694 5694 5694 5694 5694 5694 5694 5694 5694 5694 5694 5695 5696 5697 5698 5698 5698 5698 5698 5698 5698 5697 5697 5696 5696 5696 5695 5694 5693 5692 5691 5690 5689 5687 5686
5702 5700 5698 5696 5694 5692 5691 5689 5688 5688 5688 5688 5688 5688 5687 5687 5687 5688 5688 5688 5689 5690 5691 5691 5692 5692 5691 5691 5691 5690 5689 5689 5688 5687 5686 5686 5684 5683 5682 5680 5679 5677 5676
5698 5695 5693 5691 5689 5687 5686 5684 5683 5682 5682 5682 5682 5681 5681 5681 5681 5681 5682 5682 5683 5684 5685 5685 5685 5685 5685 5684 5683 5683 5682 5681 5681 5679 5678 5677 5676 5674 5672 5671 5669 5667 5666
5693 5690 5688 5685 5683 5682 5680 5679 5678 5677 5676 5676 5675 5675 5675 5675 5675 5675 5676 5676 5677 5678 5678 5678 5679 5678 5678 5677 5676 5676 5675 5674 5673 5672 5670 5669 5667 5665 5663 5661 5659 5658 5656
5688 5686 5683 5681 5678 5677 5675 5674 5672 5671 5671 5670 5670 5669 5669 5669 5669 5669 5669 5670 5671 5672 5672 5672 5672 5671 5671 5670 5669 5669 5668 5667 5665 5664 5662 5660 5658 5656 5654 5652 5650 5648 5647